Time,TemperatureF,DewpointF,PressureIn,WindDirection,WindDirectionDegrees,WindSpeedMPH,WindSpeedGustMPH,Humidity,HourlyPrecipIn,Conditions,Clouds,dailyrainin,SoftwareType,DateUTC
2013-06-03 00:00:00,72.4,69.3,31.32,SSE,161,0.0,12.0,90,0.16,,,0.11,Wunderground v.1.15,2013-06-03 04:00:00,
2013-06-03 00:05:00,72.3,69.2,31.32,SSE,162,0.0,12.0,90,0.13,,,0.12,Wunderground v.1.15,2013-06-03 04:05:00,
2013-06-03 00:15:00,72.2,69.4,31.32,South,176,0.0,10.0,91,0.07,,,0.13,Wunderground v.1.15,2013-06-03 04:15:00,
2013-06-03 00:20:00,72.2,69.4,31.32,SSE,160,0.0,10.0,91,0.06,,,0.14,Wunderground v.1.15,2013-06-03 04:20:00,
2013-06-03 00:25:00,72.2,69.4,31.32,SSW,211,0.0,10.0,91,0.11,,,0.15,Wunderground v.1.15,2013-06-03 04:25:00,
2013-06-03 00:30:00,72.1,69.3,31.32,South,178,0.0,10.0,91,0.18,,,0.16,Wunderground v.1.15,2013-06-03 04:30:00,
2013-06-03 00:35:00,72.1,69.3,31.32,South,173,0.0,10.0,91,0.13,,,0.17,Wunderground v.1.15,2013-06-03 04:35:00,
2013-06-03 00:45:00,72.1,69.6,31.32,South,181,0.0,10.0,92,0.08,,,0.18,Wunderground v.1.15,2013-06-03 04:45:00,
2013-06-03 00:50:00,72.1,69.6,31.32,South,185,0.0,10.0,92,0.06,,,0.19,Wunderground v.1.15,2013-06-03 04:50:00,
2013-06-03 00:55:00,72.1,69.6,31.32,South,169,0.0,10.0,92,0.10,,,0.20,Wunderground v.1.15,2013-06-03 04:55:00,
2013-06-03 01:00:00,72.2,69.7,31.32,South,171,0.0,10.0,92,0.09,,,0.21,Wunderground v.1.15,2013-06-03 05:00:00,
2013-06-03 01:05:00,72.2,69.7,31.32,South,169,0.0,10.0,92,0.18,,,0.22,Wunderground v.1.15,2013-06-03 05:05:00,
2013-06-03 01:10:00,72.1,69.6,31.32,SSE,168,0.0,4.0,92,0.12,,,0.01,Wunderground v.1.15,2013-06-03 05:10:00,
2013-06-03 01:15:00,72.1,69.6,31.32,SSW,201,0.0,4.0,92,0.13,,,0.02,Wunderground v.1.15,2013-06-03 05:15:00,
2013-06-03 01:25:00,72.1,69.6,31.32,South,178,0.0,4.0,92,0.10,,,0.04,Wunderground v.1.15,2013-06-03 05:25:00,
2013-06-03 01:30:00,72.1,70.0,31.32,SSW,198,0.0,4.0,93,0.10,,,0.04,Wunderground v.1.15,2013-06-03 05:30:00,
2013-06-03 01:35:00,72.1,70.0,31.32,SSW,198,0.0,4.0,93,0.08,,,0.05,Wunderground v.1.15,2013-06-03 05:35:00,
2013-06-03 01:40:00,72.1,70.0,31.32,South,187,0.0,4.0,93,0.11,,,0.06,Wunderground v.1.15,2013-06-03 05:40:00,
2013-06-03 01:50:00,72.1,70.0,31.32,SSW,204,0.0,4.0,93,0.15,,,0.08,Wunderground v.1.15,2013-06-03 05:50:00,
2013-06-03 01:55:00,72.1,70.0,31.32,SSW,204,0.0,4.0,93,0.13,,,0.09,Wunderground v.1.15,2013-06-03 05:55:00,
2013-06-03 02:00:00,72.1,70.0,31.32,SSW,203,0.0,4.0,93,0.11,,,0.10,Wunderground v.1.15,2013-06-03 06:00:00,
2013-06-03 02:05:00,72.1,70.0,31.32,SSW,203,0.0,6.0,93,0.09,,,0.11,Wunderground v.1.15,2013-06-03 06:05:00,
2013-06-03 02:15:00,72.0,69.9,31.32,SSW,210,0.0,6.0,93,0.05,,,0.11,Wunderground v.1.15,2013-06-03 06:15:00,
2013-06-03 02:25:00,72.0,69.9,31.32,SSE,164,0.0,6.0,93,0.00,,,0.12,Wunderground v.1.15,2013-06-03 06:25:00,
2013-06-03 02:30:00,72.0,69.9,31.32,SSW,211,1.0,1.0,93,0.00,,,0.12,Wunderground v.1.15,2013-06-03 06:30:00,
2013-06-03 02:35:00,71.9,69.8,31.32,South,173,1.0,6.0,93,0.00,,,0.12,Wunderground v.1.15,2013-06-03 06:35:00,
2013-06-03 02:40:00,71.9,69.8,31.32,SE,142,0.0,6.0,93,0.00,,,0.12,Wunderground v.1.15,2013-06-03 06:40:00,
2013-06-03 02:45:00,71.9,69.8,31.32,SW,219,0.0,6.0,93,0.00,,,0.12,Wunderground v.1.15,2013-06-03 06:45:00,
2013-06-03 02:55:00,71.8,69.7,31.32,SSE,152,0.0,6.0,93,0.00,,,0.13,Wunderground v.1.15,2013-06-03 06:55:00,
2013-06-03 03:00:00,71.8,69.7,31.32,SSE,165,0.0,6.0,93,0.00,,,0.13,Wunderground v.1.15,2013-06-03 07:00:00,
2013-06-03 03:05:00,71.7,69.6,31.32,South,190,0.0,6.0,93,0.00,,,0.13,Wunderground v.1.15,2013-06-03 07:05:00,
2013-06-03 03:15:00,71.7,69.6,31.32,South,180,0.0,5.0,93,0.00,,,0.13,Wunderground v.1.15,2013-06-03 07:15:00,
2013-06-03 03:20:00,71.8,69.7,31.32,SSE,161,1.0,1.0,93,0.00,,,0.13,Wunderground v.1.15,2013-06-03 07:20:00,
2013-06-03 03:30:00,71.8,69.7,31.32,SW,215,1.0,1.0,93,0.00,,,0.13,Wunderground v.1.15,2013-06-03 07:30:00,
2013-06-03 03:35:00,71.8,69.7,31.32,South,191,1.0,5.0,93,0.00,,,0.13,Wunderground v.1.15,2013-06-03 07:35:00,
2013-06-03 03:40:00,71.8,69.7,31.32,SSW,206,0.0,5.0,93,0.00,,,0.13,Wunderground v.1.15,2013-06-03 07:40:00,
2013-06-03 03:45:00,71.9,70.1,31.32,SSE,157,0.0,5.0,94,0.00,,,0.13,Wunderground v.1.15,2013-06-03 07:45:00,
2013-06-03 03:50:00,71.9,69.8,31.32,SSW,209,1.0,1.0,93,0.00,,,0.13,Wunderground v.1.15,2013-06-03 07:50:00,
2013-06-03 03:55:00,71.9,70.1,31.32,South,178,1.0,5.0,94,0.00,,,0.13,Wunderground v.1.15,2013-06-03 07:55:00,
2013-06-03 04:05:00,71.9,70.1,31.32,WSW,238,0.0,11.0,94,0.00,,,0.13,Wunderground v.1.15,2013-06-03 08:05:00,
2013-06-03 04:15:00,71.8,70.0,31.32,SSW,205,1.0,11.0,94,0.00,,,0.13,Wunderground v.1.15,2013-06-03 08:15:00,
2013-06-03 04:20:00,71.9,70.1,31.32,SW,215,0.0,11.0,94,0.00,,,0.13,Wunderground v.1.15,2013-06-03 08:20:00,
2013-06-03 04:25:00,71.9,70.1,31.32,SSW,209,0.0,11.0,94,0.00,,,0.14,Wunderground v.1.15,2013-06-03 08:25:00,
2013-06-03 04:30:00,71.9,70.1,31.32,SW,221,0.0,11.0,94,0.00,,,0.14,Wunderground v.1.15,2013-06-03 08:30:00,
2013-06-03 04:35:00,71.9,70.1,31.32,SW,227,1.0,11.0,94,0.00,,,0.14,Wunderground v.1.15,2013-06-03 08:35:00,
2013-06-03 04:40:00,71.9,70.1,31.32,SW,227,0.0,11.0,94,0.00,,,0.14,Wunderground v.1.15,2013-06-03 08:40:00,
2013-06-03 04:50:00,71.9,70.1,31.32,SW,229,0.0,11.0,94,0.00,,,0.14,Wunderground v.1.15,2013-06-03 08:50:00,
2013-06-03 04:55:00,71.9,70.1,31.32,SW,226,0.0,11.0,94,0.00,,,0.14,Wunderground v.1.15,2013-06-03 08:55:00,
2013-06-03 05:00:00,71.9,70.1,31.32,SW,224,0.0,11.0,94,0.00,,,0.14,Wunderground v.1.15,2013-06-03 09:00:00,
2013-06-03 05:05:00,71.9,70.1,31.32,SW,221,1.0,11.0,94,0.00,,,0.14,Wunderground v.1.15,2013-06-03 09:05:00,
2013-06-03 05:15:00,71.9,70.1,31.32,SW,230,0.0,11.0,94,0.00,,,0.14,Wunderground v.1.15,2013-06-03 09:15:00,
2013-06-03 05:20:00,71.9,70.1,31.32,SW,229,0.0,11.0,94,0.00,,,0.14,Wunderground v.1.15,2013-06-03 09:20:00,
2013-06-03 05:30:00,71.9,70.1,31.32,SW,235,0.0,11.0,94,0.00,,,0.14,Wunderground v.1.15,2013-06-03 09:30:00,
2013-06-03 05:35:00,71.9,70.1,31.32,SW,226,0.0,11.0,94,0.00,,,0.14,Wunderground v.1.15,2013-06-03 09:35:00,
2013-06-03 05:40:00,71.9,70.1,31.32,SW,225,0.0,11.0,94,0.00,,,0.14,Wunderground v.1.15,2013-06-03 09:40:00,
2013-06-03 05:45:00,71.9,70.1,31.32,SW,225,0.0,11.0,94,0.00,,,0.14,Wunderground v.1.15,2013-06-03 09:45:00,
2013-06-03 05:50:00,71.9,70.1,31.32,SW,226,0.0,11.0,94,0.00,,,0.14,Wunderground v.1.15,2013-06-03 09:50:00,
2013-06-03 05:55:00,71.9,70.1,31.32,SW,223,0.0,11.0,94,0.00,,,0.14,Wunderground v.1.15,2013-06-03 09:55:00,
2013-06-03 06:05:00,72.0,70.2,31.32,SW,221,0.0,11.0,94,0.00,,,0.14,Wunderground v.1.15,2013-06-03 10:05:00,
2013-06-03 06:15:00,72.0,70.2,31.32,SW,221,0.0,7.0,94,0.00,,,0.14,Wunderground v.1.15,2013-06-03 10:15:00,
2013-06-03 06:25:00,72.0,70.2,31.32,SW,221,0.0,7.0,94,0.00,,,0.14,Wunderground v.1.15,2013-06-03 10:25:00,
2013-06-03 06:30:00,72.0,70.2,31.32,SW,221,0.0,7.0,94,0.00,,,0.14,Wunderground v.1.15,2013-06-03 10:30:00,
2013-06-03 06:35:00,72.0,70.2,31.32,SW,221,0.0,7.0,94,0.00,,,0.14,Wunderground v.1.15,2013-06-03 10:35:00,
2013-06-03 06:40:00,72.0,70.2,31.32,SW,223,0.0,7.0,94,0.00,,,0.14,Wunderground v.1.15,2013-06-03 10:40:00,
2013-06-03 06:45:00,72.0,70.2,31.32,SW,221,0.0,7.0,94,0.00,,,0.14,Wunderground v.1.15,2013-06-03 10:45:00,
2013-06-03 06:55:00,72.1,70.3,31.32,SW,226,0.0,7.0,94,0.00,,,0.14,Wunderground v.1.15,2013-06-03 10:55:00,
2013-06-03 07:05:00,72.1,70.3,31.32,SW,226,0.0,7.0,94,0.00,,,0.14,Wunderground v.1.15,2013-06-03 11:05:00,
2013-06-03 07:15:00,72.1,70.3,31.32,SW,232,0.0,4.0,94,0.00,,,0.15,Wunderground v.1.15,2013-06-03 11:15:00,
2013-06-03 07:20:00,72.2,70.4,31.32,SW,229,1.0,1.0,94,0.00,,,0.15,Wunderground v.1.15,2013-06-03 11:20:00,
2013-06-03 07:30:00,72.2,70.4,31.32,SW,229,0.0,0.0,94,0.00,,,0.15,Wunderground v.1.15,2013-06-03 11:30:00,
2013-06-03 07:35:00,72.2,70.4,31.32,SW,229,0.0,0.0,94,0.00,,,0.15,Wunderground v.1.15,2013-06-03 11:35:00,
2013-06-03 07:40:00,72.4,70.9,31.32,SW,229,0.0,0.0,95,0.00,,,0.15,Wunderground v.1.15,2013-06-03 11:40:00,
2013-06-03 07:45:00,72.6,70.8,31.32,SSE,152,0.0,0.0,94,0.00,,,0.15,Wunderground v.1.15,2013-06-03 11:45:00,
2013-06-03 07:55:00,72.6,70.8,31.31,South,187,0.0,0.0,94,0.00,,,0.15,Wunderground v.1.15,2013-06-03 11:55:00,
2013-06-03 08:05:00,72.7,70.9,31.31,South,173,0.0,5.0,94,0.00,,,0.15,Wunderground v.1.15,2013-06-03 12:05:00,
2013-06-03 08:15:00,72.9,71.4,31.31,WSW,238,1.0,4.0,95,0.00,,,0.15,Wunderground v.1.15,2013-06-03 12:15:00,
2013-06-03 08:20:00,73.0,71.5,31.31,WSW,238,1.0,1.0,95,0.00,,,0.15,Wunderground v.1.15,2013-06-03 12:20:00,
2013-06-03 08:25:00,73.1,71.6,31.31,SW,223,0.0,2.0,95,0.00,,,0.15,Wunderground v.1.15,2013-06-03 12:25:00,
2013-06-03 08:30:00,73.2,71.4,31.31,SW,226,0.0,4.0,94,0.00,,,0.15,Wunderground v.1.15,2013-06-03 12:30:00,
2013-06-03 08:40:00,73.2,71.4,31.31,SW,218,1.0,1.0,94,0.00,,,0.15,Wunderground v.1.15,2013-06-03 12:40:00,
2013-06-03 08:45:00,73.4,71.6,31.31,SW,218,0.0,4.0,94,0.00,,,0.15,Wunderground v.1.15,2013-06-03 12:45:00,
2013-06-03 08:55:00,73.7,71.9,31.31,SW,218,0.0,4.0,94,0.00,,,0.15,Wunderground v.1.15,2013-06-03 12:55:00,
2013-06-03 09:00:00,73.7,71.9,31.31,SW,215,0.0,4.0,94,0.00,,,0.15,Wunderground v.1.15,2013-06-03 13:00:00,
2013-06-03 09:05:00,73.9,72.1,31.31,SSE,147,1.0,6.0,94,0.00,,,0.15,Wunderground v.1.15,2013-06-03 13:05:00,
2013-06-03 09:15:00,74.4,72.6,31.31,SSW,197,1.0,6.0,94,0.00,,,0.15,Wunderground v.1.15,2013-06-03 13:15:00,
2013-06-03 09:20:00,74.5,72.7,31.31,WSW,249,0.0,6.0,94,0.00,,,0.15,Wunderground v.1.15,2013-06-03 13:20:00,
2013-06-03 09:25:00,74.9,73.1,31.31,SSW,195,0.0,6.0,94,0.00,,,0.15,Wunderground v.1.15,2013-06-03 13:25:00,
2013-06-03 09:35:00,75.3,73.1,31.33,SSW,192,1.0,6.0,93,0.00,,,0.15,Wunderground v.1.15,2013-06-03 13:35:00,
2013-06-03 09:40:00,75.4,72.9,27.84,SSE,166,0.0,6.0,92,0.00,,,0.15,Wunderground v.1.15,2013-06-03 13:40:00,
2013-06-03 09:45:00,75.4,72.6,27.84,SSE,151,1.0,6.0,91,0.00,,,0.15,Wunderground v.1.15,2013-06-03 13:45:00,
2013-06-03 09:50:00,75.5,73.0,31.33,WSW,238,1.0,1.0,92,0.00,,,0.15,Wunderground v.1.15,2013-06-03 13:50:00,
2013-06-03 09:55:00,75.3,72.5,31.33,SW,219,0.0,6.0,91,0.00,,,0.15,Wunderground v.1.15,2013-06-03 13:55:00,
2013-06-03 10:00:00,75.2,72.4,31.33,SW,215,0.0,6.0,91,0.00,,,0.15,Wunderground v.1.15,2013-06-03 14:00:00,
2013-06-03 10:05:00,75.1,72.3,31.33,SW,218,0.0,7.0,91,0.00,,,0.15,Wunderground v.1.15,2013-06-03 14:05:00,
2013-06-03 10:15:00,75.1,72.3,31.33,SW,218,0.0,7.0,91,0.00,,,0.15,Wunderground v.1.15,2013-06-03 14:15:00,
2013-06-03 10:20:00,75.2,72.4,31.33,WSW,246,0.0,7.0,91,0.00,,,0.15,Wunderground v.1.15,2013-06-03 14:20:00,
2013-06-03 10:25:00,75.2,72.4,31.33,WSW,240,0.0,7.0,91,0.00,,,0.16,Wunderground v.1.15,2013-06-03 14:25:00,
2013-06-03 10:30:00,75.2,72.4,31.33,WSW,240,0.0,7.0,91,0.00,,,0.16,Wunderground v.1.15,2013-06-03 14:30:00,
2013-06-03 10:35:00,75.2,72.7,31.33,WSW,240,0.0,7.0,92,0.08,,,0.17,Wunderground v.1.15,2013-06-03 14:35:00,
2013-06-03 10:40:00,75.2,72.7,31.33,WSW,242,0.0,7.0,92,0.20,,,0.19,Wunderground v.1.15,2013-06-03 14:40:00,
2013-06-03 10:45:00,75.1,72.6,31.33,WSW,242,0.0,7.0,92,0.55,,,0.24,Wunderground v.1.15,2013-06-03 14:45:00,
2013-06-03 10:55:00,74.9,72.4,32.01,SW,234,0.0,7.0,92,0.06,,,0.24,Wunderground v.1.15,2013-06-03 14:55:00,
2013-06-03 11:00:00,74.6,71.8,32.01,SW,236,0.0,7.0,91,0.04,,,0.24,Wunderground v.1.15,2013-06-03 15:00:00,
2013-06-03 11:05:00,74.3,71.5,32.01,West,279,0.0,7.0,91,0.00,,,0.24,Wunderground v.1.15,2013-06-03 15:05:00,
2013-06-03 11:15:00,74.4,71.9,32.01,West,275,0.0,4.0,92,0.00,,,0.24,Wunderground v.1.15,2013-06-03 15:15:00,
2013-06-03 11:20:00,74.6,72.1,32.01,West,275,0.0,4.0,92,0.00,,,0.24,Wunderground v.1.15,2013-06-03 15:20:00,
2013-06-03 11:30:00,74.8,72.0,32.01,WSW,248,0.0,4.0,91,0.00,,,0.24,Wunderground v.1.15,2013-06-03 15:30:00,
2013-06-03 11:35:00,75.1,71.6,32.01,West,263,0.0,4.0,89,0.00,,,0.24,Wunderground v.1.15,2013-06-03 15:35:00,
2013-06-03 11:40:00,75.4,71.9,32.01,NW,309,1.0,1.0,89,0.00,,,0.24,Wunderground v.1.15,2013-06-03 15:40:00,
2013-06-03 11:45:00,76.0,72.2,32.01,WNW,283,1.0,4.0,88,0.00,,,0.24,Wunderground v.1.15,2013-06-03 15:45:00,
2013-06-03 11:50:00,76.2,72.4,32.01,West,266,1.0,1.0,88,0.00,,,0.24,Wunderground v.1.15,2013-06-03 15:50:00,
2013-06-03 11:55:00,76.4,72.6,32.01,NW,314,0.0,4.0,88,0.00,,,0.24,Wunderground v.1.15,2013-06-03 15:55:00,
2013-06-03 12:00:00,76.4,72.2,32.01,WNW,299,1.0,1.0,87,0.00,,,0.24,Wunderground v.1.15,2013-06-03 16:00:00,
2013-06-03 12:05:00,76.5,72.7,32.01,WNW,295,1.0,6.0,88,0.00,,,0.24,Wunderground v.1.15,2013-06-03 16:05:00,
2013-06-03 12:15:00,77.1,73.3,27.90,WNW,292,0.0,6.0,88,0.00,,,0.24,Wunderground v.1.15,2013-06-03 16:15:00,
2013-06-03 12:20:00,77.2,73.0,27.90,WNW,294,1.0,6.0,87,0.00,,,0.24,Wunderground v.1.15,2013-06-03 16:20:00,
2013-06-03 12:25:00,77.4,73.2,27.90,West,261,1.0,6.0,87,0.00,,,0.24,Wunderground v.1.15,2013-06-03 16:25:00,
2013-06-03 12:30:00,78.2,74.4,27.90,WSW,245,1.0,1.0,88,0.00,,,0.24,Wunderground v.1.15,2013-06-03 16:30:00,
2013-06-03 12:40:00,78.7,73.5,31.33,West,281,0.0,6.0,84,0.00,,,0.24,Wunderground v.1.15,2013-06-03 16:40:00,
2013-06-03 12:45:00,78.7,73.5,31.33,NW,319,1.0,6.0,84,0.00,,,0.24,Wunderground v.1.15,2013-06-03 16:45:00,
2013-06-03 12:50:00,79.1,74.5,31.33,North,5,1.0,1.0,86,0.00,,,0.24,Wunderground v.1.15,2013-06-03 16:50:00,
2013-06-03 12:55:00,79.7,74.1,30.64,WNW,302,1.0,7.0,83,0.00,,,0.24,Wunderground v.1.15,2013-06-03 16:55:00,
2013-06-03 13:00:00,79.6,73.6,30.64,NW,314,2.0,6.0,82,0.00,,,0.24,Wunderground v.1.15,2013-06-03 17:00:00,
2013-06-03 13:10:00,80.4,74.8,30.64,West,259,2.0,9.0,83,0.00,,,0.24,Wunderground v.1.15,2013-06-03 17:10:00,
2013-06-03 13:15:00,80.9,73.4,30.64,North,349,3.0,9.0,78,0.00,,,0.24,Wunderground v.1.15,2013-06-03 17:15:00,
2013-06-03 13:20:00,81.0,74.2,30.64,NNW,340,3.0,9.0,80,0.00,,,0.24,Wunderground v.1.15,2013-06-03 17:20:00,
2013-06-03 13:25:00,81.3,73.8,30.64,NW,313,1.0,9.0,78,0.00,,,0.24,Wunderground v.1.15,2013-06-03 17:25:00,
2013-06-03 13:30:00,81.2,73.7,31.32,WSW,254,2.0,2.0,78,0.00,,,0.24,Wunderground v.1.15,2013-06-03 17:30:00,
2013-06-03 13:35:00,81.5,74.4,31.32,WNW,284,1.0,9.0,79,0.00,,,0.24,Wunderground v.1.15,2013-06-03 17:35:00,
2013-06-03 13:40:00,81.9,74.4,31.32,North,355,1.0,9.0,78,0.00,,,0.24,Wunderground v.1.15,2013-06-03 17:40:00,
2013-06-03 13:50:00,82.8,74.5,31.32,NNW,338,1.0,9.0,76,0.00,,,0.24,Wunderground v.1.15,2013-06-03 17:50:00,
2013-06-03 13:55:00,83.3,74.5,31.32,WSW,254,1.0,9.0,75,0.00,,,0.24,Wunderground v.1.15,2013-06-03 17:55:00,
2013-06-03 14:00:00,83.4,73.4,31.32,NW,311,1.0,1.0,72,0.00,,,0.24,Wunderground v.1.15,2013-06-03 18:00:00,
2013-06-03 14:10:00,83.2,73.6,31.32,WNW,300,0.0,12.0,73,0.00,,,0.24,Wunderground v.1.15,2013-06-03 18:10:00,
2013-06-03 14:15:00,82.5,73.4,31.32,NNW,337,0.0,12.0,74,0.00,,,0.24,Wunderground v.1.15,2013-06-03 18:15:00,
2013-06-03 14:20:00,82.0,73.3,31.32,WNW,300,1.0,12.0,75,0.00,,,0.24,Wunderground v.1.15,2013-06-03 18:20:00,
2013-06-03 14:25:00,81.6,72.9,31.32,West,278,2.0,12.0,75,0.00,,,0.24,Wunderground v.1.15,2013-06-03 18:25:00,
2013-06-03 14:30:00,81.3,73.0,31.32,West,279,2.0,2.0,76,0.00,,,0.24,Wunderground v.1.15,2013-06-03 18:30:00,
2013-06-03 14:35:00,81.4,73.1,31.32,NNW,342,2.0,12.0,76,0.00,,,0.24,Wunderground v.1.15,2013-06-03 18:35:00,
2013-06-03 14:40:00,81.4,72.3,31.32,West,281,3.0,3.0,74,0.00,,,0.24,Wunderground v.1.15,2013-06-03 18:40:00,
2013-06-03 14:45:00,81.5,72.8,31.32,NW,315,3.0,12.0,75,0.00,,,0.24,Wunderground v.1.15,2013-06-03 18:45:00,
2013-06-03 14:55:00,81.7,72.6,31.32,West,261,1.0,12.0,74,0.00,,,0.24,Wunderground v.1.15,2013-06-03 18:55:00,
2013-06-03 15:00:00,81.6,72.9,31.32,WSW,255,1.0,12.0,75,0.00,,,0.24,Wunderground v.1.15,2013-06-03 19:00:00,
2013-06-03 15:05:00,81.7,73.8,31.32,NW,304,2.0,12.0,77,0.00,,,0.24,Wunderground v.1.15,2013-06-03 19:05:00,
2013-06-03 15:15:00,81.8,73.1,31.32,WNW,296,2.0,9.0,75,0.00,,,0.24,Wunderground v.1.15,2013-06-03 19:15:00,
2013-06-03 15:20:00,81.8,73.1,31.32,WNW,298,2.0,2.0,75,0.00,,,0.24,Wunderground v.1.15,2013-06-03 19:20:00,
2013-06-03 15:30:00,83.3,73.7,31.32,WNW,299,1.0,1.0,73,0.00,,,0.24,Wunderground v.1.15,2013-06-03 19:30:00,
2013-06-03 15:35:00,83.2,73.6,31.32,NNW,346,1.0,6.0,73,0.00,,,0.24,Wunderground v.1.15,2013-06-03 19:35:00,
2013-06-03 15:40:00,83.2,73.6,31.32,North,350,2.0,2.0,73,0.00,,,0.24,Wunderground v.1.15,2013-06-03 19:40:00,
2013-06-03 15:45:00,83.2,73.2,31.32,West,260,1.0,9.0,72,0.00,,,0.24,Wunderground v.1.15,2013-06-03 19:45:00,
2013-06-03 15:50:00,83.1,73.1,31.32,NW,307,1.0,1.0,72,0.00,,,0.24,Wunderground v.1.15,2013-06-03 19:50:00,
2013-06-03 15:55:00,83.3,72.5,31.99,NNW,335,1.0,9.0,70,0.00,,,0.24,Wunderground v.1.15,2013-06-03 19:55:00,
2013-06-03 16:05:00,83.3,72.1,31.99,NW,321,1.0,9.0,69,0.00,,,0.24,Wunderground v.1.15,2013-06-03 20:05:00,
2013-06-03 16:15:00,84.5,73.2,31.99,NNW,335,0.0,9.0,69,0.00,,,0.24,Wunderground v.1.15,2013-06-03 20:15:00,
2013-06-03 16:20:00,85.1,72.9,31.99,NW,325,0.0,9.0,67,0.00,,,0.24,Wunderground v.1.15,2013-06-03 20:20:00,
2013-06-03 16:25:00,85.4,72.7,31.99,WNW,287,0.0,9.0,66,0.00,,,0.24,Wunderground v.1.15,2013-06-03 20:25:00,
2013-06-03 16:30:00,85.5,71.5,31.99,NNW,330,1.0,1.0,63,0.00,,,0.24,Wunderground v.1.15,2013-06-03 20:30:00,
2013-06-03 16:40:00,86.1,72.0,31.99,North,355,1.0,1.0,63,0.00,,,0.24,Wunderground v.1.15,2013-06-03 20:40:00,
2013-06-03 16:45:00,86.6,73.0,31.99,NNE,19,1.0,9.0,64,0.00,,,0.24,Wunderground v.1.15,2013-06-03 20:45:00,
2013-06-03 16:50:00,87.4,72.3,31.99,NE,54,0.0,9.0,61,0.00,,,0.24,Wunderground v.1.15,2013-06-03 20:50:00,
2013-06-03 16:55:00,87.6,72.5,31.99,NE,55,0.0,9.0,61,0.00,,,0.24,Wunderground v.1.15,2013-06-03 20:55:00,
2013-06-03 17:00:00,87.6,72.0,31.99,NE,55,0.0,9.0,60,0.00,,,0.24,Wunderground v.1.15,2013-06-03 21:00:00,
2013-06-03 17:05:00,87.4,71.3,31.99,NE,55,0.0,9.0,59,0.00,,,0.24,Wunderground v.1.15,2013-06-03 21:05:00,
2013-06-03 17:15:00,87.5,70.9,31.99,East,95,0.0,5.0,58,0.00,,,0.24,Wunderground v.1.15,2013-06-03 21:15:00,
2013-06-03 17:20:00,87.3,71.7,31.99,East,98,0.0,5.0,60,0.00,,,0.24,Wunderground v.1.15,2013-06-03 21:20:00,
2013-06-03 17:25:00,86.1,71.1,31.99,East,101,0.0,5.0,61,0.00,,,0.24,Wunderground v.1.15,2013-06-03 21:25:00,
2013-06-03 17:30:00,85.3,73.1,31.99,SSW,208,0.0,5.0,67,0.00,,,0.24,Wunderground v.1.15,2013-06-03 21:30:00,
2013-06-03 17:35:00,84.7,73.4,31.99,SSW,212,2.0,5.0,69,0.00,,,0.24,Wunderground v.1.15,2013-06-03 21:35:00,
2013-06-03 17:40:00,83.3,72.9,31.99,South,183,4.0,4.0,71,0.00,,,0.24,Wunderground v.1.15,2013-06-03 21:40:00,
2013-06-03 17:45:00,82.9,73.8,31.99,SSW,192,3.0,5.0,74,0.00,,,0.24,Wunderground v.1.15,2013-06-03 21:45:00,
2013-06-03 17:50:00,83.3,73.7,31.99,ESE,122,2.0,5.0,73,0.00,,,0.24,Wunderground v.1.15,2013-06-03 21:50:00,
2013-06-03 18:00:00,83.1,73.9,31.99,SSE,165,2.0,6.0,74,0.00,,,0.24,Wunderground v.1.15,2013-06-03 22:00:00,
2013-06-03 18:05:00,82.9,73.4,31.99,SE,135,3.0,13.0,73,0.00,,,0.24,Wunderground v.1.15,2013-06-03 22:05:00,
2013-06-03 18:15:00,83.2,73.6,31.32,East,101,1.0,13.0,73,0.00,,,0.24,Wunderground v.1.15,2013-06-03 22:15:00,
2013-06-03 18:20:00,83.2,74.0,31.32,SSE,164,1.0,13.0,74,0.00,,,0.24,Wunderground v.1.15,2013-06-03 22:20:00,
2013-06-03 18:25:00,82.7,73.6,31.32,SSE,168,1.0,13.0,74,0.00,,,0.24,Wunderground v.1.15,2013-06-03 22:25:00,
2013-06-03 18:35:00,82.0,73.3,29.16,South,176,1.0,13.0,75,0.00,,,0.24,Wunderground v.1.15,2013-06-03 22:35:00,
2013-06-03 18:40:00,81.6,73.3,29.16,SE,144,0.0,13.0,76,0.00,,,0.24,Wunderground v.1.15,2013-06-03 22:40:00,
2013-06-03 18:45:00,81.5,73.2,29.16,SSE,167,1.0,13.0,76,0.00,,,0.24,Wunderground v.1.15,2013-06-03 22:45:00,
2013-06-03 18:50:00,81.4,73.1,29.16,SE,146,1.0,1.0,76,0.00,,,0.24,Wunderground v.1.15,2013-06-03 22:50:00,
2013-06-03 18:55:00,81.4,72.7,29.16,South,183,1.0,13.0,75,0.00,,,0.24,Wunderground v.1.15,2013-06-03 22:55:00,
2013-06-03 19:00:00,80.9,72.2,29.16,South,170,1.0,1.0,75,0.00,,,0.24,Wunderground v.1.15,2013-06-03 23:00:00,
2013-06-03 19:05:00,80.4,72.5,29.16,SSW,213,0.0,9.0,77,0.00,,,0.24,Wunderground v.1.15,2013-06-03 23:05:00,
2013-06-03 19:15:00,79.6,72.1,29.16,SSW,203,0.0,9.0,78,0.00,,,0.24,Wunderground v.1.15,2013-06-03 23:15:00,
2013-06-03 19:20:00,79.4,72.3,29.16,SSW,203,0.0,9.0,79,0.00,,,0.24,Wunderground v.1.15,2013-06-03 23:20:00,
2013-06-03 19:25:00,78.9,71.8,29.16,SSW,209,1.0,9.0,79,0.00,,,0.24,Wunderground v.1.15,2013-06-03 23:25:00,
2013-06-03 19:30:00,78.7,72.0,29.16,SSW,209,1.0,1.0,80,0.00,,,0.24,Wunderground v.1.15,2013-06-03 23:30:00,
2013-06-03 19:35:00,78.5,72.2,29.16,SSW,209,0.0,9.0,81,0.00,,,0.24,Wunderground v.1.15,2013-06-03 23:35:00,
2013-06-03 19:40:00,78.3,72.0,29.16,SSE,167,0.0,9.0,81,0.00,,,0.24,Wunderground v.1.15,2013-06-03 23:40:00,
2013-06-03 19:50:00,77.9,71.6,29.16,SSW,195,0.0,9.0,81,0.00,,,0.24,Wunderground v.1.15,2013-06-03 23:50:00,
2013-06-03 19:55:00,77.7,71.0,29.16,NNW,343,1.0,9.0,80,0.00,,,0.24,Wunderground v.1.15,2013-06-03 23:55:00,
2013-06-03 20:00:00,76.7,68.2,29.16,NNW,329,3.0,9.0,75,0.00,,,0.24,Wunderground v.1.15,2013-06-04 00:00:00,
2013-06-03 20:05:00,75.4,66.9,29.16,North,5,6.0,9.0,75,1.15,,,0.26,Wunderground v.1.15,2013-06-04 00:05:00,
2013-06-03 20:15:00,71.7,65.9,29.16,North,355,6.0,7.0,82,0.08,,,0.32,Wunderground v.1.15,2013-06-04 00:15:00,
2013-06-03 20:25:00,70.1,65.7,29.16,North,360,1.0,4.0,86,0.00,,,0.32,Wunderground v.1.15,2013-06-04 00:25:00,
2013-06-03 20:30:00,69.9,65.9,29.16,North,360,0.0,4.0,87,0.56,,,0.35,Wunderground v.1.15,2013-06-04 00:30:00,
2013-06-03 20:35:00,69.8,66.1,29.16,North,360,0.0,4.0,88,0.15,,,0.36,Wunderground v.1.15,2013-06-04 00:35:00,
2013-06-03 20:40:00,69.7,66.0,29.16,North,360,0.0,4.0,88,0.07,,,0.36,Wunderground v.1.15,2013-06-04 00:40:00,
2013-06-03 20:45:00,69.6,65.9,29.16,North,360,0.0,4.0,88,0.04,,,0.36,Wunderground v.1.15,2013-06-04 00:45:00,
2013-06-03 20:50:00,69.4,65.7,29.16,North,360,0.0,4.0,88,0.00,,,0.36,Wunderground v.1.15,2013-06-04 00:50:00,
2013-06-03 20:55:00,69.4,66.0,29.16,North,360,0.0,4.0,89,0.00,,,0.36,Wunderground v.1.15,2013-06-04 00:55:00,
2013-06-03 21:05:00,69.4,66.0,29.16,North,360,0.0,14.0,89,0.00,,,0.36,Wunderground v.1.15,2013-06-04 01:05:00,
2013-06-03 21:15:00,69.3,66.2,29.16,North,360,0.0,14.0,90,0.00,,,0.36,Wunderground v.1.15,2013-06-04 01:15:00,
2013-06-03 21:20:00,69.3,66.2,29.16,North,360,0.0,14.0,90,0.00,,,0.36,Wunderground v.1.15,2013-06-04 01:20:00,
2013-06-03 21:25:00,69.3,66.6,29.16,North,360,0.0,14.0,91,0.00,,,0.36,Wunderground v.1.15,2013-06-04 01:25:00,
2013-06-03 21:35:00,69.4,66.7,29.16,North,9,0.0,14.0,91,0.00,,,0.36,Wunderground v.1.15,2013-06-04 01:35:00,
2013-06-03 21:40:00,69.3,66.6,29.16,North,9,0.0,14.0,91,0.00,,,0.36,Wunderground v.1.15,2013-06-04 01:40:00,
2013-06-03 21:45:00,69.4,66.7,29.16,North,9,0.0,14.0,91,0.00,,,0.36,Wunderground v.1.15,2013-06-04 01:45:00,
2013-06-03 21:50:00,69.4,66.7,29.16,North,9,0.0,14.0,91,0.00,,,0.36,Wunderground v.1.15,2013-06-04 01:50:00,
2013-06-03 21:55:00,69.3,66.6,29.16,North,9,0.0,14.0,91,0.00,,,0.36,Wunderground v.1.15,2013-06-04 01:55:00,
2013-06-03 22:00:00,69.3,66.6,29.16,North,9,0.0,14.0,91,0.00,,,0.36,Wunderground v.1.15,2013-06-04 02:00:00,
2013-06-03 22:05:00,69.3,66.6,29.16,North,9,0.0,14.0,91,0.00,,,0.36,Wunderground v.1.15,2013-06-04 02:05:00,
2013-06-03 22:15:00,69.3,66.6,29.16,North,9,0.0,3.0,91,0.00,,,0.36,Wunderground v.1.15,2013-06-04 02:15:00,
2013-06-03 22:20:00,69.3,66.6,29.16,North,9,0.0,3.0,91,0.00,,,0.36,Wunderground v.1.15,2013-06-04 02:20:00,
2013-06-03 22:25:00,69.4,66.7,29.16,North,9,0.0,3.0,91,0.00,,,0.36,Wunderground v.1.15,2013-06-04 02:25:00,
2013-06-03 22:30:00,69.4,66.7,29.16,North,9,0.0,3.0,91,0.00,,,0.36,Wunderground v.1.15,2013-06-04 02:30:00,
2013-06-03 22:35:00,69.4,66.7,29.16,North,9,0.0,3.0,91,0.00,,,0.36,Wunderground v.1.15,2013-06-04 02:35:00,
2013-06-03 22:40:00,69.4,66.7,29.16,North,9,0.0,3.0,91,0.00,,,0.36,Wunderground v.1.15,2013-06-04 02:40:00,
2013-06-03 22:45:00,69.4,67.0,29.16,North,9,0.0,3.0,92,0.00,,,0.36,Wunderground v.1.15,2013-06-04 02:45:00,
2013-06-03 22:55:00,69.4,67.0,29.16,North,9,0.0,3.0,92,0.00,,,0.36,Wunderground v.1.15,2013-06-04 02:55:00,
2013-06-03 23:00:00,69.3,66.6,29.16,North,9,0.0,3.0,91,0.00,,,0.36,Wunderground v.1.15,2013-06-04 03:00:00,
2013-06-03 23:05:00,69.2,66.8,29.16,North,9,0.0,3.0,92,0.00,,,0.36,Wunderground v.1.15,2013-06-04 03:05:00,
2013-06-03 23:15:00,69.0,66.6,29.16,North,9,0.0,0.0,92,0.00,,,0.36,Wunderground v.1.15,2013-06-04 03:15:00,
2013-06-03 23:20:00,68.8,66.4,29.16,North,9,0.0,0.0,92,0.00,,,0.36,Wunderground v.1.15,2013-06-04 03:20:00,
2013-06-03 23:30:00,68.5,66.1,29.16,North,9,0.0,0.0,92,0.00,,,0.36,Wunderground v.1.15,2013-06-04 03:30:00,
2013-06-03 23:35:00,68.4,65.7,29.16,North,9,0.0,0.0,91,0.00,,,0.36,Wunderground v.1.15,2013-06-04 03:35:00,
2013-06-03 23:40:00,68.1,65.7,29.16,North,9,0.0,0.0,92,0.00,,,0.36,Wunderground v.1.15,2013-06-04 03:40:00,
2013-06-03 23:45:00,68.1,65.7,29.16,North,9,0.0,0.0,92,0.00,,,0.36,Wunderground v.1.15,2013-06-04 03:45:00,
2013-06-03 23:50:00,68.0,65.6,29.16,North,9,0.0,0.0,92,0.00,,,0.36,Wunderground v.1.15,2013-06-04 03:50:00,
2013-06-03 23:55:00,68.1,65.7,29.16,North,9,0.0,0.0,92,0.00,,,0.37,Wunderground v.1.15,2013-06-04 03:55:00,